Weather Service Report


137 
ASUS43 KLSX 272207
RWRMO 

WEATHER SUMMARY FOR MISSOURI
NATIONAL WEATHER SERVICE SPRINGFIELD MO
400 PM CST FRI FEB 27 2015

NOTE: "FAIR" INDICATES FEW OR NO CLOUDS BELOW 12,000 FEET WITH NO
       SIGNIFICANT WEATHER AND/OR OBSTRUCTIONS TO VISIBILITY.
       CURRENT SKY AND/OR WEATHER CONDITIONS ARE NOT AVAILABLE FOR
       CHILLICOTHE AND FARMINGTON.

MOZ001>031-035>038-043-044-053-054-272300-
...NORTHERN AND WESTERN MISSOURI...
  
CITY           SKY/WX    TMP DP  RH WIND       PRES   REMARKS
KANSAS CTY INT CLOUDY    17   0  47 SE5       30.54F WCI  10          
KANSAS C DTWN  PTSUNNY   19   0  43 CALM      30.57F                  
LEE'S SUMMIT   PTSUNNY   18   0  45 E3        30.55F                  
ST JOSEPH      MOSUNNY   19  -1  41 SE5       30.56F WCI  12          
CHILLICOTHE      N/A     17   4  56 E6        30.59F WCI   9          
KIRKSVILLE     SUNNY     17   3  54 E3        30.57F                  
     
$$
MOZ066>068-077>081-088>096-101>105-272300-
...SOUTHWEST MISSOURI...
  
CITY           SKY/WX    TMP DP  RH WIND       PRES   REMARKS
SPRINGFIELD    CLOUDY    22   2  42 NE7       30.50F WCI  13          
JOPLIN         CLOUDY    22   2  42 E7        30.51F WCI  13          
               
$$
MOZ032>034-039>042-045>050-055>058-069>072-272300-
...CENTRAL MISSOURI...  
  
CITY           SKY/WX    TMP DP  RH WIND       PRES   REMARKS
COLUMBIA       MOSUNNY   21   4  47 N10       30.56F WCI  10          
JEFFERSON CITY PTSUNNY   23  -2  33 E6        30.59F WCI  16          
ROLLA          CLOUDY    20  -2  38 CALM      30.53R                  
SEDALIA        PTSUNNY   21   1  41 NE5       30.57F WCI  15          
WHITEMAN AFB   CLOUDY    20   0  42 E6        30.55F WCI  12          
WARRENSBURG    PTSUNNY   19   3  49 NE6       30.57S WCI  11          
OSAGE BEACH    CLOUDY    21  -2  35 E3        30.56S                  
               
$$
MOZ051-052-059>065-272300-
...EAST CENTRAL MISSOURI...
  
CITY           SKY/WX    TMP DP  RH WIND       PRES   REMARKS
ST LOUIS INTL  MOSUNNY   19   1  45 N6        30.62F WCI  11          
SPIRIT OF STL  PTSUNNY   20  -2  38 N9        30.61F WCI   9          
ST CHARLES     SUNNY     17   1  49 NE8       30.64F WCI   7          
                   
$$
MOZ072>076-082>087-097>100-106>115-272300-
...SOUTH CENTRAL AND SOUTHEAST MISSOURI...
  
CITY           SKY/WX    TMP DP  RH WIND       PRES   REMARKS
CAPE GIRARDEAU CLOUDY    23   9  55 NE12      30.60S WCI  12          
FARMINGTON     PTSUNNY   21   3  45 NE9       30.57F WCI  11          
POPLAR BLUFF   CLOUDY    22   7  52 E6        30.61R WCI  14          
WEST PLAINS    CLOUDY    21  -1  38 E3        30.54R                  
                                       
$$

Return to Home page


Western Regional Climate Center, wrcc@dri.edu